• In Belarus
  • List of Countries
  • For 7 days
  • Water Temperature
  • Satellite Maps
  • Weather Map
  • Weather Widgets
  • user-avatar
    Login

    Hourly Weather Cochabamba

    Today, 23 November, Thursday

    Time Temperature Precipitation Wind Pressure Humidity
    00:00 +16°C° 0 mm 2 mps 555 mmHg 74%
    01:00 +16°C° 0 mm 2 mps 555 mmHg 74%
    02:00 +16°C° 0 mm 2 mps 555 mmHg 74%
    03:00 +15°C° 0 mm 2 mps 554 mmHg 75%
    04:00 +15°C° 0 mm 2 mps 554 mmHg 76%
    05:00 +15°C° 0 mm 2 mps 554 mmHg 76%
    06:00 +15°C° 0 mm 2 mps 555 mmHg 71%
    07:00 +16°C° 0 mm 2 mps 555 mmHg 66%
    08:00 +17°C° 0 mm 2 mps 556 mmHg 61%
    09:00 +19°C° 0 mm 2 mps 557 mmHg 56%
    10:00 +20°C° 0 mm 2 mps 557 mmHg 50%
    11:00 +21°C° 0 mm 2 mps 558 mmHg 44%
    12:00 +23°C° 0 mm 2 mps 557 mmHg 43%
    13:00 +24°C° 0 mm 3 mps 557 mmHg 41%
    14:00 +25°C° 0 mm 3 mps 557 mmHg 39%
    15:00 +24°C° 0.2 mm 3 mps 556 mmHg 43%
    16:00 +23°C° 0.2 mm 4 mps 555 mmHg 48%
    17:00 +22°C° 0.2 mm 4 mps 555 mmHg 52%
    18:00 +21°C° 0.2 mm 3 mps 554 mmHg 57%
    19:00 +19°C° 0.2 mm 3 mps 554 mmHg 63%
    20:00 +18°C° 0.2 mm 2 mps 554 mmHg 69%
    21:00 +18°C° 0 mm 2 mps 554 mmHg 70%
    22:00 +18°C° 0 mm 1 mps 555 mmHg 72%
    23:00 +18°C° 0 mm 1 mps 555 mmHg 73%

    Tomorrow, 24 November, Friday

    Time Temperature Precipitation Wind Pressure Humidity
    00:00 +16°C° 0 mm 1 mps 555 mmHg 74%
    01:00 +16°C° 0 mm 1 mps 554 mmHg 75%
    02:00 +16°C° 0 mm 1 mps 554 mmHg 76%
    03:00 +16°C° 0 mm 1 mps 554 mmHg 76%
    04:00 +14°C° 0 mm 0 mps 554 mmHg 77%
    05:00 +14°C° 0 mm 0 mps 554 mmHg 77%
    06:00 +15°C° 0 mm 0 mps 554 mmHg 71%
    07:00 +16°C° 0 mm 0 mps 555 mmHg 65%
    08:00 +17°C° 0 mm 0 mps 556 mmHg 59%
    09:00 +21°C° 0.1 mm 1 mps 557 mmHg 55%
    10:00 +22°C° 0.1 mm 1 mps 557 mmHg 51%
    11:00 +23°C° 0.1 mm 2 mps 558 mmHg 47%
    12:00 +24°C° 0.4 mm 2 mps 557 mmHg 46%
    13:00 +24°C° 0.4 mm 3 mps 557 mmHg 46%
    14:00 +25°C° 0.4 mm 3 mps 556 mmHg 46%
    15:00 +23°C° 0.6 mm 4 mps 556 mmHg 49%
    16:00 +22°C° 0.6 mm 4 mps 555 mmHg 53%
    17:00 +22°C° 0.6 mm 4 mps 555 mmHg 56%
    18:00 +20°C° 0.7 mm 3 mps 555 mmHg 61%
    19:00 +19°C° 0.7 mm 2 mps 555 mmHg 65%
    20:00 +19°C° 0.7 mm 1 mps 555 mmHg 70%
    21:00 +18°C° 0.4 mm 2 mps 555 mmHg 70%
    22:00 +18°C° 0.4 mm 2 mps 556 mmHg 70%
    23:00 +17°C° 0.4 mm 2 mps 556 mmHg 71%

    Day after tomorrow, 25 November, Saturday

    Time Temperature Precipitation Wind Pressure Humidity
    00:00 +17°C° 0.1 mm 2 mps 556 mmHg 70%
    01:00 +18°C° 0.1 mm 1 mps 555 mmHg 70%
    02:00 +18°C° 0.1 mm 1 mps 555 mmHg 69%
    03:00 +18°C° 0 mm 1 mps 555 mmHg 70%
    04:00 +18°C° 0 mm 1 mps 554 mmHg 70%
    05:00 +15°C° 0 mm 0 mps 554 mmHg 71%
    06:00 +18°C° 0 mm 1 mps 555 mmHg 67%
    07:00 +19°C° 0 mm 1 mps 556 mmHg 64%
    08:00 +20°C° 0 mm 1 mps 556 mmHg 61%
    09:00 +20°C° 0 mm 2 mps 557 mmHg 57%
    10:00 +21°C° 0 mm 2 mps 557 mmHg 53%
    11:00 +23°C° 0 mm 2 mps 558 mmHg 49%
    12:00 +24°C° 0.2 mm 3 mps 557 mmHg 49%
    13:00 +24°C° 0.2 mm 3 mps 556 mmHg 50%
    14:00 +23°C° 0.2 mm 4 mps 556 mmHg 50%
    15:00 +23°C° 0.3 mm 4 mps 555 mmHg 52%
    16:00 +22°C° 0.3 mm 4 mps 555 mmHg 54%
    17:00 +22°C° 0.3 mm 5 mps 554 mmHg 57%
    18:00 +20°C° 0.3 mm 4 mps 554 mmHg 62%
    19:00 +19°C° 0.3 mm 4 mps 554 mmHg 67%
    20:00 +18°C° 0.3 mm 3 mps 555 mmHg 72%
    21:00 +18°C° 0.4 mm 3 mps 555 mmHg 73%
    22:00 +17°C° 0.4 mm 2 mps 555 mmHg 74%
    23:00 +17°C° 0.4 mm 2 mps 556 mmHg 75%

    26 November, Sunday

    Time Temperature Precipitation Wind Pressure Humidity
    00:00 +17°C° 0.2 mm 2 mps 555 mmHg 74%
    01:00 +17°C° 0.2 mm 2 mps 555 mmHg 73%
    02:00 +16°C° 0.2 mm 2 mps 554 mmHg 73%
    03:00 +16°C° 0.1 mm 2 mps 554 mmHg 73%
    04:00 +16°C° 0.1 mm 1 mps 554 mmHg 72%
    05:00 +16°C° 0.1 mm 1 mps 554 mmHg 72%
    06:00 +18°C° 0 mm 1 mps 555 mmHg 70%
    07:00 +18°C° 0 mm 1 mps 555 mmHg 67%
    08:00 +19°C° 0 mm 1 mps 556 mmHg 64%
    09:00 +19°C° 0.1 mm 2 mps 556 mmHg 60%
    10:00 +20°C° 0.1 mm 2 mps 557 mmHg 56%
    11:00 +21°C° 0.1 mm 3 mps 557 mmHg 52%
    12:00 +22°C° 0.1 mm 3 mps 556 mmHg 52%
    13:00 +22°C° 0.1 mm 4 mps 556 mmHg 51%
    14:00 +23°C° 0.1 mm 4 mps 555 mmHg 51%
    15:00 +22°C° 0.1 mm 4 mps 555 mmHg 53%
    16:00 +22°C° 0.1 mm 4 mps 554 mmHg 56%
    17:00 +21°C° 0.1 mm 4 mps 553 mmHg 58%
    18:00 +20°C° 0.3 mm 4 mps 554 mmHg 63%
    19:00 +19°C° 0.3 mm 4 mps 554 mmHg 67%
    20:00 +18°C° 0.3 mm 4 mps 554 mmHg 72%
    21:00 +17°C° 0.2 mm 3 mps 554 mmHg 72%
    22:00 +17°C° 0.2 mm 3 mps 554 mmHg 72%
    23:00 +17°C° 0.2 mm 2 mps 554 mmHg 72%

    27 November, Monday

    Time Temperature Precipitation Wind Pressure Humidity
    00:00 +17°C° 0 mm 2 mps 554 mmHg 71%
    01:00 +17°C° 0 mm 2 mps 553 mmHg 69%
    02:00 +17°C° 0 mm 2 mps 553 mmHg 68%
    03:00 +16°C° 0.1 mm 2 mps 553 mmHg 67%
    04:00 +16°C° 0.1 mm 2 mps 553 mmHg 66%
    05:00 +16°C° 0.1 mm 1 mps 553 mmHg 65%
    06:00 +18°C° 0 mm 1 mps 554 mmHg 61%
    07:00 +18°C° 0 mm 2 mps 555 mmHg 57%
    08:00 +19°C° 0 mm 2 mps 556 mmHg 54%
    09:00 +20°C° 0 mm 2 mps 556 mmHg 50%
    10:00 +21°C° 0 mm 2 mps 557 mmHg 47%
    11:00 +24°C° 0 mm 3 mps 557 mmHg 43%
    12:00 +24°C° 0.2 mm 3 mps 557 mmHg 45%
    13:00 +24°C° 0.2 mm 3 mps 556 mmHg 48%
    14:00 +23°C° 0.2 mm 4 mps 556 mmHg 50%
    15:00 +22°C° 0.3 mm 4 mps 555 mmHg 53%
    16:00 +22°C° 0.3 mm 4 mps 555 mmHg 56%
    17:00 +21°C° 0.3 mm 4 mps 554 mmHg 59%
    18:00 +20°C° 0.5 mm 4 mps 555 mmHg 64%
    19:00 +18°C° 0.5 mm 3 mps 555 mmHg 68%
    20:00 +17°C° 0.5 mm 3 mps 555 mmHg 73%
    21:00 +17°C° 0.2 mm 2 mps 556 mmHg 73%
    22:00 +17°C° 0.2 mm 2 mps 556 mmHg 74%
    23:00 +16°C° 0.2 mm 1 mps 556 mmHg 75%

    28 November, Tuesday

    Time Temperature Precipitation Wind Pressure Humidity
    00:00 +16°C° 0.3 mm 1 mps 556 mmHg 76%
    01:00 +16°C° 0.3 mm 1 mps 555 mmHg 77%
    02:00 +15°C° 0.3 mm 1 mps 555 mmHg 78%
    03:00 +15°C° 0.2 mm 2 mps 555 mmHg 78%
    04:00 +15°C° 0.2 mm 2 mps 555 mmHg 78%
    05:00 +15°C° 0.2 mm 2 mps 555 mmHg 79%
    06:00 +16°C° 0.3 mm 2 mps 556 mmHg 77%
    07:00 +16°C° 0.3 mm 2 mps 557 mmHg 75%
    08:00 +16°C° 0.3 mm 2 mps 557 mmHg 73%
    09:00 +17°C° 0.7 mm 2 mps 558 mmHg 71%
    10:00 +17°C° 0.7 mm 2 mps 558 mmHg 68%
    11:00 +18°C° 0.7 mm 3 mps 558 mmHg 65%
    12:00 +18°C° 0.7 mm 3 mps 558 mmHg 65%
    13:00 +18°C° 0.7 mm 3 mps 557 mmHg 65%
    14:00 +18°C° 0.7 mm 3 mps 557 mmHg 65%
    15:00 +17°C° 0.6 mm 3 mps 556 mmHg 66%
    16:00 +17°C° 0.6 mm 3 mps 556 mmHg 67%
    17:00 +17°C° 0.6 mm 2 mps 556 mmHg 68%
    18:00 +16°C° 0.4 mm 2 mps 556 mmHg 71%
    19:00 +16°C° 0.4 mm 2 mps 556 mmHg 73%
    20:00 +15°C° 0.4 mm 1 mps 556 mmHg 76%
    21:00 +15°C° 0.3 mm 1 mps 556 mmHg 77%
    22:00 +15°C° 0.3 mm 1 mps 556 mmHg 77%
    23:00 +15°C° 0.3 mm 1 mps 557 mmHg 78%
    Show more